Regional Weather Roundup
Issued by NWS

Home | Current Version | Previous Version | Graphics & Text | Print | Product List | Glossary On
Versions: 1 2 3 4 5 6 7 8 9 10 11 12 13 14 15 16 17 18 19 20 21 22 23 24 25 26 27 28 29 30 31 32 33 34 35 36 37 38 39 40 41 42 43 44 45 46 47 48 49 50
000
ASUS45 KSLC 281910
RWRUT

UTAH REGIONAL WEATHER ROUNDUP
NATIONAL WEATHER SERVICE SALT LAKE CITY UT
100 PM MDT MON JUL 28 2014

UTZ001>011-023>025-282000-

NORTHERN UTAH

CITY           SKY/WX    TMP DP  RH WIND       PRES   REMARKS
HILL AFB       CLOUDY    87  51  29 W13       30.23F
LOGAN          SUNNY     89  48  24 N7        30.20F
OGDEN          PTSUNNY   89  49  25 W10       30.20F
PROVO AIRPORT  PTSUNNY   84  54  34 VRB5      30.23F
SALT LAKE CITY PTSUNNY   91  47  21 SE7       30.16F
VERNAL         PTSUNNY   81  48  31 NE7       30.29F
WENDOVER       PTSUNNY   90  46  22 S9        30.18F
HEBER CITY     CLOUDY    84  46  26 NW5       30.27F
WEST JORDAN    SUNNY     90  57  33 SE12G17   30.21F

$$

UTZ012>022-026-027-282000-

SOUTHERN UTAH

CITY           SKY/WX    TMP DP  RH WIND       PRES   REMARKS
BRYCE CANYON   CLOUDY    64  54  69 W9        30.49F
CEDAR CITY     PTSUNNY   76  54  46 SW8       30.34F
MILFORD        PTSUNNY   82  50  32 SW13      30.28F
MOAB/CYNLANDS  PTSUNNY   88  51  28 S13G20    30.24F
PRICE          CLOUDY    82  50  32 S8        30.34F
ST GEORGE      CLOUDY    90  54  29 N5        30.17F
KANAB            N/A     86  48  26 S13       30.31F

$$

REGIONAL REPORTS     COLORADO/ARIZONA

CITY           SKY/WX    TMP DP  RH WIND       PRES   REMARKS
CRAIG, CO      SUNNY     77  47  34 VRB5      30.34F
GRAND JUNCTION PTSUNNY   82  54  37 NW8       30.28F
RIFLE          PTSUNNY   82  50  32 W9        30.30F
MONTROSE       PTSUNNY   85  50  29 VRB7      30.35F
CORTEZ         SUNNY     79  53  40 CALM      30.39F
PAGE, AZ       SUNNY     91  53  27 S8        30.24F
GRAND CANYON   MOSUNNY   75  52  44 S7        30.43F
KINGMAN        MOSUNNY   92  53  26 MISG      30.19F
FLAGSTAFF      CLOUDY    72  47  40 CALM      30.46F

$$

REGIONAL REPORTS    NEVADA/IDAHO/WYOMING

CITY           SKY/WX    TMP DP  RH WIND       PRES   REMARKS
LAS VEGAS, NV  PTSUNNY   93  57  29 VRB3      30.08F HX  91
ELY            CLOUDY    80  43  26 S8        30.34F
ELKO           MOSUNNY   89  41  18 VRB3      30.22F
POCATELLO, ID  SUNNY     82  43  25 SW6       30.22S
BURLEY         CLOUDY    80  54  40 N6        30.19F
EVANSTON, WY   PTSUNNY   81  42  25 VRB7      30.39F
ROCK SPRINGS   SUNNY     87  32  14 E8        30.36F

$$



USA.gov is the U.S. government's official web portal to all federal, state and local government web resources and services.